Time,TemperatureF,DewpointF,PressureIn,WindDirection,WindDirectionDegrees,WindSpeedMPH,WindSpeedGustMPH,Humidity,HourlyPrecipIn,Conditions,Clouds,dailyrainin,SoftwareType,DateUTC
2013-02-13 00:03:00,28.3,25.0,29.95,WNW,289,4.0,-999.0,86,-99.99,,,0.00,weatherlink.com 1.10,2013-02-13 05:03:00,
2013-02-13 00:18:00,28.0,25.0,29.95,WNW,289,2.0,-999.0,87,-99.99,,,0.00,weatherlink.com 1.10,2013-02-13 05:18:00,
2013-02-13 00:33:00,27.8,25.0,29.95,WNW,289,2.0,-999.0,88,-99.99,,,0.00,weatherlink.com 1.10,2013-02-13 05:33:00,
2013-02-13 00:48:00,27.5,24.0,29.94,WNW,289,2.0,-999.0,88,-99.99,,,0.00,weatherlink.com 1.10,2013-02-13 05:48:00,
2013-02-13 01:03:00,27.7,25.0,29.94,WNW,289,4.0,-999.0,89,-99.99,,,0.00,weatherlink.com 1.10,2013-02-13 06:03:00,
2013-02-13 01:19:00,28.1,25.0,29.94,WNW,288,5.0,-999.0,89,-99.99,,,0.00,weatherlink.com 1.10,2013-02-13 06:19:00,
2013-02-13 01:34:00,28.4,25.0,29.94,WNW,288,5.0,-999.0,88,-99.99,,,0.00,weatherlink.com 1.10,2013-02-13 06:34:00,
2013-02-13 01:49:00,28.7,26.0,29.94,WNW,288,4.0,-999.0,88,-99.99,,,0.00,weatherlink.com 1.10,2013-02-13 06:49:00,
2013-02-13 02:04:00,28.9,26.0,29.93,WNW,288,0.0,-999.0,88,-99.99,,,0.00,weatherlink.com 1.10,2013-02-13 07:04:00,
2013-02-13 02:19:00,29.0,26.0,29.93,WNW,288,4.0,-999.0,88,-99.99,,,0.00,weatherlink.com 1.10,2013-02-13 07:19:00,
2013-02-13 02:34:00,29.2,26.0,29.93,WNW,290,4.0,-999.0,87,-99.99,,,0.00,weatherlink.com 1.10,2013-02-13 07:34:00,
2013-02-13 02:49:00,29.4,26.0,29.93,WNW,290,5.0,-999.0,85,-99.99,,,0.00,weatherlink.com 1.10,2013-02-13 07:49:00,
2013-02-13 03:04:00,29.3,25.0,29.92,WNW,294,6.0,-999.0,85,-99.99,,,0.00,weatherlink.com 1.10,2013-02-13 08:04:00,
2013-02-13 03:19:00,29.0,25.0,29.91,WNW,296,5.0,-999.0,84,-99.99,,,0.00,weatherlink.com 1.10,2013-02-13 08:19:00,
2013-02-13 03:34:00,28.5,24.0,29.91,WNW,297,4.0,-999.0,84,-99.99,,,0.00,weatherlink.com 1.10,2013-02-13 08:34:00,
2013-02-13 03:49:00,28.2,24.0,29.91,WNW,299,5.0,-999.0,84,-99.99,,,0.00,weatherlink.com 1.10,2013-02-13 08:49:00,
2013-02-13 04:04:00,28.0,24.0,29.90,WNW,299,2.0,-999.0,84,-99.99,,,0.00,weatherlink.com 1.10,2013-02-13 09:04:00,
2013-02-13 04:20:00,27.7,24.0,29.90,WNW,299,2.0,-999.0,85,-99.99,,,0.00,weatherlink.com 1.10,2013-02-13 09:20:00,
2013-02-13 04:35:00,27.6,24.0,29.89,WNW,299,4.0,-999.0,85,-99.99,,,0.00,weatherlink.com 1.10,2013-02-13 09:35:00,
2013-02-13 04:50:00,27.6,24.0,29.89,NW,307,5.0,-999.0,85,-99.99,,,0.00,weatherlink.com 1.10,2013-02-13 09:50:00,
2013-02-13 05:05:00,27.6,24.0,29.89,NW,309,2.0,-999.0,85,-99.99,,,0.00,weatherlink.com 1.10,2013-02-13 10:05:00,
2013-02-13 05:20:00,27.6,24.0,29.88,NW,309,2.0,-999.0,85,-99.99,,,0.00,weatherlink.com 1.10,2013-02-13 10:20:00,
2013-02-13 05:35:00,27.6,24.0,29.88,NW,309,4.0,-999.0,85,-99.99,,,0.00,weatherlink.com 1.10,2013-02-13 10:35:00,
2013-02-13 05:50:00,27.5,24.0,29.88,NW,309,1.0,-999.0,85,-99.99,,,0.00,weatherlink.com 1.10,2013-02-13 10:50:00,
2013-02-13 06:05:00,27.5,24.0,29.88,NW,309,5.0,-999.0,85,-99.99,,,0.00,weatherlink.com 1.10,2013-02-13 11:05:00,
2013-02-13 06:20:00,27.3,23.0,29.87,NW,323,0.0,-999.0,85,-99.99,,,0.00,weatherlink.com 1.10,2013-02-13 11:20:00,
2013-02-13 06:35:00,27.4,24.0,29.86,NE,34,4.0,-999.0,85,-99.99,,,0.00,weatherlink.com 1.10,2013-02-13 11:35:00,
2013-02-13 06:50:00,27.4,24.0,29.86,NNE,27,5.0,-999.0,86,-99.99,,,0.00,weatherlink.com 1.10,2013-02-13 11:50:00,
2013-02-13 07:05:00,27.4,24.0,29.86,NNE,21,5.0,-999.0,86,-99.99,,,0.00,weatherlink.com 1.10,2013-02-13 12:05:00,
2013-02-13 07:21:00,27.4,24.0,29.86,NNE,21,2.0,-999.0,86,-99.99,,,0.00,weatherlink.com 1.10,2013-02-13 12:21:00,
2013-02-13 07:36:00,27.3,23.0,29.85,NNE,22,2.0,-999.0,85,-99.99,,,0.00,weatherlink.com 1.10,2013-02-13 12:36:00,
2013-02-13 07:51:00,27.3,23.0,29.85,NNE,21,6.0,-999.0,85,-99.99,,,0.00,weatherlink.com 1.10,2013-02-13 12:51:00,
2013-02-13 08:06:00,27.1,24.0,29.84,NE,34,7.0,-999.0,86,-99.99,,,0.00,weatherlink.com 1.10,2013-02-13 13:06:00,
2013-02-13 08:21:00,27.1,24.0,29.84,NE,37,4.0,-999.0,86,-99.99,,,0.00,weatherlink.com 1.10,2013-02-13 13:21:00,
2013-02-13 08:36:00,27.0,23.0,29.83,NNE,30,8.0,-999.0,86,-99.99,,,0.00,weatherlink.com 1.10,2013-02-13 13:36:00,
2013-02-13 08:51:00,26.6,23.0,29.83,NNE,22,4.0,-999.0,87,-99.99,,,0.00,weatherlink.com 1.10,2013-02-13 13:51:00,
2013-02-13 09:06:00,27.0,24.0,29.84,NNE,19,3.0,-999.0,87,-99.99,,,0.00,weatherlink.com 1.10,2013-02-13 14:06:00,
2013-02-13 09:21:00,27.1,24.0,29.86,NE,34,4.0,-999.0,87,-99.99,,,0.00,weatherlink.com 1.10,2013-02-13 14:21:00,
2013-02-13 09:36:00,27.0,23.0,29.86,NE,45,4.0,-999.0,86,-99.99,,,0.00,weatherlink.com 1.10,2013-02-13 14:36:00,
2013-02-13 09:51:00,26.9,23.0,29.84,NE,35,5.0,-999.0,86,-99.99,,,0.00,weatherlink.com 1.10,2013-02-13 14:51:00,
2013-02-13 10:07:00,26.8,23.0,29.85,NE,35,4.0,-999.0,86,-99.99,,,0.00,weatherlink.com 1.10,2013-02-13 15:07:00,
2013-02-13 10:22:00,27.0,23.0,29.85,NE,35,0.0,-999.0,86,-99.99,,,0.00,weatherlink.com 1.10,2013-02-13 15:22:00,
2013-02-13 10:37:00,27.2,24.0,29.85,NE,35,0.0,-999.0,86,-99.99,,,0.00,weatherlink.com 1.10,2013-02-13 15:37:00,
2013-02-13 10:52:00,27.6,24.0,29.85,NNE,24,2.0,-999.0,85,-99.99,,,0.00,weatherlink.com 1.10,2013-02-13 15:52:00,
2013-02-13 11:07:00,27.6,24.0,29.85,NNE,20,2.0,-999.0,85,-99.99,,,0.00,weatherlink.com 1.10,2013-02-13 16:07:00,
2013-02-13 11:22:00,27.8,24.0,29.84,NNE,17,2.0,-999.0,85,-99.99,,,0.00,weatherlink.com 1.10,2013-02-13 16:22:00,
2013-02-13 11:37:00,27.6,24.0,29.84,NNW,344,5.0,-999.0,85,-99.99,,,0.00,weatherlink.com 1.10,2013-02-13 16:37:00,
2013-02-13 11:52:00,27.7,24.0,29.84,NNW,333,1.0,-999.0,85,-99.99,,,0.00,weatherlink.com 1.10,2013-02-13 16:52:00,
2013-02-13 12:07:00,28.0,24.0,29.84,NW,325,0.0,-999.0,85,-99.99,,,0.00,weatherlink.com 1.10,2013-02-13 17:07:00,
2013-02-13 12:23:00,27.9,24.0,29.84,WNW,298,5.0,-999.0,86,-99.99,,,0.00,weatherlink.com 1.10,2013-02-13 17:23:00,
2013-02-13 12:37:00,28.1,25.0,29.84,West,274,2.0,-999.0,86,-99.99,,,0.00,weatherlink.com 1.10,2013-02-13 17:37:00,
2013-02-13 12:52:00,28.4,25.0,29.83,West,268,4.0,-999.0,85,-99.99,,,0.00,weatherlink.com 1.10,2013-02-13 17:52:00,
2013-02-13 13:08:00,28.7,25.0,29.82,WSW,256,6.0,-999.0,85,-99.99,,,0.00,weatherlink.com 1.10,2013-02-13 18:08:00,
2013-02-13 13:23:00,28.9,25.0,29.82,WSW,255,7.0,-999.0,85,-99.99,,,0.00,weatherlink.com 1.10,2013-02-13 18:23:00,
2013-02-13 13:38:00,29.3,25.0,29.81,WSW,252,4.0,-999.0,83,-99.99,,,0.00,weatherlink.com 1.10,2013-02-13 18:38:00,
2013-02-13 13:53:00,29.8,26.0,29.80,WSW,258,6.0,-999.0,84,-99.99,,,0.00,weatherlink.com 1.10,2013-02-13 18:53:00,
2013-02-13 14:08:00,30.4,26.0,29.79,West,262,3.0,-999.0,82,-99.99,,,0.00,weatherlink.com 1.10,2013-02-13 19:08:00,
2013-02-13 14:23:00,30.8,26.0,29.79,West,271,7.0,-999.0,81,-99.99,,,0.00,weatherlink.com 1.10,2013-02-13 19:23:00,
2013-02-13 14:39:00,31.4,26.0,29.79,West,273,5.0,-999.0,81,-99.99,,,0.00,weatherlink.com 1.10,2013-02-13 19:39:00,
2013-02-13 14:53:00,32.0,26.0,29.78,WSW,253,5.0,-999.0,77,-99.99,,,0.00,weatherlink.com 1.10,2013-02-13 19:53:00,
2013-02-13 15:09:00,32.5,26.0,29.78,WSW,252,3.0,-999.0,77,-99.99,,,0.00,weatherlink.com 1.10,2013-02-13 20:09:00,
2013-02-13 15:24:00,33.4,27.0,29.77,WSW,248,6.0,-999.0,77,-99.99,,,0.00,weatherlink.com 1.10,2013-02-13 20:24:00,
2013-02-13 15:39:00,34.2,27.0,29.78,WSW,251,4.0,-999.0,76,-99.99,,,0.00,weatherlink.com 1.10,2013-02-13 20:39:00,
2013-02-13 15:54:00,34.5,27.0,29.78,WSW,251,4.0,-999.0,74,-99.99,,,0.00,weatherlink.com 1.10,2013-02-13 20:54:00,
2013-02-13 16:09:00,34.6,27.0,29.78,WSW,251,3.0,-999.0,74,-99.99,,,0.00,weatherlink.com 1.10,2013-02-13 21:09:00,
2013-02-13 16:24:00,35.1,28.0,29.78,WSW,251,3.0,-999.0,75,-99.99,,,0.00,weatherlink.com 1.10,2013-02-13 21:24:00,
2013-02-13 16:39:00,35.5,28.0,29.78,WSW,249,4.0,-999.0,73,-99.99,,,0.00,weatherlink.com 1.10,2013-02-13 21:39:00,
2013-02-13 16:54:00,35.7,28.0,29.78,WSW,248,5.0,-999.0,73,-99.99,,,0.00,weatherlink.com 1.10,2013-02-13 21:54:00,
2013-02-13 17:09:00,35.9,28.0,29.78,WSW,248,1.0,-999.0,74,-99.99,,,0.00,weatherlink.com 1.10,2013-02-13 22:09:00,
2013-02-13 17:24:00,36.0,28.0,29.78,WSW,248,2.0,-999.0,74,-99.99,,,0.00,weatherlink.com 1.10,2013-02-13 22:24:00,
2013-02-13 17:39:00,35.8,28.0,29.78,WSW,248,3.0,-999.0,74,-99.99,,,0.00,weatherlink.com 1.10,2013-02-13 22:39:00,
2013-02-13 17:54:00,35.3,28.0,29.79,WSW,248,0.0,-999.0,76,-99.99,,,0.00,weatherlink.com 1.10,2013-02-13 22:54:00,
2013-02-13 18:09:00,34.6,28.0,29.79,WSW,248,1.0,-999.0,77,-99.99,,,0.00,weatherlink.com 1.10,2013-02-13 23:09:00,
2013-02-13 18:25:00,33.9,28.0,29.80,WSW,248,1.0,-999.0,79,-99.99,,,0.00,weatherlink.com 1.10,2013-02-13 23:25:00,
2013-02-13 18:40:00,33.4,28.0,29.80,WSW,248,2.0,-999.0,80,-99.99,,,0.00,weatherlink.com 1.10,2013-02-13 23:40:00,
2013-02-13 18:55:00,33.0,28.0,29.80,WSW,248,2.0,-999.0,81,-99.99,,,0.00,weatherlink.com 1.10,2013-02-13 23:55:00,
2013-02-13 19:10:00,32.8,28.0,29.80,WSW,248,2.0,-999.0,82,-99.99,,,0.00,weatherlink.com 1.10,2013-02-14 00:10:00,
2013-02-13 19:25:00,32.8,28.0,29.81,WSW,248,2.0,-999.0,82,-99.99,,,0.00,weatherlink.com 1.10,2013-02-14 00:25:00,
2013-02-13 19:40:00,32.9,28.0,29.81,WSW,247,2.0,-999.0,83,-99.99,,,0.00,weatherlink.com 1.10,2013-02-14 00:40:00,
2013-02-13 19:55:00,32.7,28.0,29.81,SW,234,2.0,-999.0,83,-99.99,,,0.00,weatherlink.com 1.10,2013-02-14 00:55:00,
2013-02-13 20:10:00,32.6,28.0,29.81,SW,221,3.0,-999.0,84,-99.99,,,0.00,weatherlink.com 1.10,2013-02-14 01:10:00,
2013-02-13 20:25:00,32.4,28.0,29.82,SSW,212,2.0,-999.0,84,-99.99,,,0.00,weatherlink.com 1.10,2013-02-14 01:25:00,
2013-02-13 20:41:00,32.3,28.0,29.82,SSW,211,0.0,-999.0,84,-99.99,,,0.00,weatherlink.com 1.10,2013-02-14 01:41:00,
2013-02-13 20:55:00,32.1,28.0,29.82,SSW,211,3.0,-999.0,85,-99.99,,,0.00,weatherlink.com 1.10,2013-02-14 01:55:00,
2013-02-13 21:10:00,32.3,29.0,29.82,SSW,210,3.0,-999.0,86,-99.99,,,0.00,weatherlink.com 1.10,2013-02-14 02:10:00,
2013-02-13 21:25:00,32.3,29.0,29.82,SSW,210,2.0,-999.0,86,-99.99,,,0.00,weatherlink.com 1.10,2013-02-14 02:25:00,
2013-02-13 21:41:00,32.2,29.0,29.82,SSW,210,1.0,-999.0,86,-99.99,,,0.00,weatherlink.com 1.10,2013-02-14 02:41:00,
2013-02-13 22:11:00,32.5,29.0,29.82,SSW,209,3.0,-999.0,86,-99.99,,,0.00,weatherlink.com 1.10,2013-02-14 03:11:00,
2013-02-13 22:26:00,32.5,29.0,29.82,SSW,209,2.0,-999.0,86,-99.99,,,0.00,weatherlink.com 1.10,2013-02-14 03:26:00,
2013-02-13 22:41:00,32.7,29.0,29.82,SSW,207,2.0,-999.0,85,-99.99,,,0.00,weatherlink.com 1.10,2013-02-14 03:41:00,
2013-02-13 22:56:00,32.8,29.0,29.83,SSW,206,3.0,-999.0,85,-99.99,,,0.00,weatherlink.com 1.10,2013-02-14 03:56:00,
2013-02-13 23:11:00,33.3,29.0,29.82,SSW,202,2.0,-999.0,84,-99.99,,,0.00,weatherlink.com 1.10,2013-02-14 04:11:00,
2013-02-13 23:41:00,34.1,30.0,29.82,SSW,201,3.0,-999.0,83,-99.99,,,0.00,weatherlink.com 1.10,2013-02-14 04:41:00,